Jacksonville, IL

8:07 PM CST on November 17, 2017 (GMT -0600)
Jacksonville Municipal

Weather History for KIJX - December, 2013

Change the Weather History Date:

Sunday, December 1, 2013

  Actual Average (KSPI) Record (KSPI)
Temperature  
Mean Temperature 38 °F -  
Max Temperature 51 °F 43 °F 70 °F (1970)
Min Temperature 26 °F 28 °F 0 °F (1893)
Degree Days  
Heating Degree Days 26    
Moisture  
Dew Point 31 °F    
Average Humidity 78    
Maximum Humidity 100    
Minimum Humidity 48    
Precipitation  
Precipitation 0.00 in - - ()
Sea Level Pressure  
Sea Level Pressure 30.06 in    
Wind  
Wind Speed 0 mph (North)    
Max Wind Speed 0 mph    
Max Gust Speed -    
Visibility 8 miles    
Events Fog    
Averages and records for this station are not official NWS values.
T = Trace of Precipitation, MM = Missing Value Source: NWS Daily Summary

Daily Weather History Graph

Daily Weather History Graph

Search for Another Location

Airport or City:

Trip Planner

Search our weather history database for the weather conditions in past years. The results will help you decide how hot, cold, wet, or windy it might be!

Date:

Astronomy

Dec. 01, 2013 Rise Set
Actual Time 7:03 AM CST 4:36 PM CST
Civil Twilight 6:33 AM CST 5:06 PM CST
Nautical Twilight 5:59 AM CST 5:40 PM CST
Astronomical Twilight 5:27 AM CST 6:12 PM CST
Moon 5:21 AM CST (12/1) 3:46 PM CST (12/1)
Length of Visible Light 10h 33m
Length of Day
9h 33m
Waning Crescent, 2% of the Moon is Illuminated
Dec 1
Waning Crescent
Dec 2
New
Dec 9
First Quarter
Dec 17
Full
Dec 25
Last Quarter

Hourly Weather History & Observations

Time (CST) Temp. Dew Point Humidity Pressure Visibility Wind Dir Wind Speed Gust Speed Precip Events Conditions
12:15 AM 33.4 °F 30.0 °F 87% 30.11 in 10.0 mi Calm Calm - N/A   Clear
12:35 AM 35.2 °F 30.9 °F 84% 30.10 in 10.0 mi Calm Calm - N/A   Clear
12:55 AM 34.2 °F 30.6 °F 87% 30.10 in 10.0 mi Calm Calm - N/A   Clear
1:15 AM 33.8 °F 30.2 °F 87% 30.10 in 10.0 mi Calm Calm - N/A   Clear
1:35 AM 34.0 °F 30.6 °F 87% 30.10 in 10.0 mi Calm Calm - N/A   Clear
1:55 AM 34.3 °F 30.7 °F 87% 30.10 in 10.0 mi Calm Calm - N/A   Clear
2:15 AM 33.1 °F 30.2 °F 89% 30.10 in 10.0 mi Calm Calm - N/A   Clear
2:35 AM 31.1 °F 28.4 °F 90% 30.10 in 10.0 mi Calm Calm - N/A   Clear
2:55 AM 32.2 °F 30.6 °F 94% 30.10 in 10.0 mi Calm Calm - N/A   Clear
3:15 AM 32.9 °F 31.1 °F 93% 30.10 in 10.0 mi Calm Calm - N/A   Clear
3:35 AM 32.2 °F 30.6 °F 94% 30.10 in 7.0 mi Calm Calm - N/A   Clear
3:55 AM 33.1 °F 31.6 °F 94% 30.10 in 7.0 mi Calm Calm - N/A   Clear
4:15 AM 32.4 °F 31.1 °F 95% 30.10 in 7.0 mi Calm Calm - N/A   Clear
4:35 AM 32.5 °F 31.5 °F 96% 30.11 in 7.0 mi Calm Calm - N/A   Clear
4:55 AM 32.0 °F 30.9 °F 96% 30.11 in 5.0 mi Calm Calm - N/A   Clear
5:15 AM 31.5 °F 30.6 °F 96% 30.11 in 4.0 mi Calm Calm - N/A   Clear
5:35 AM 27.9 °F 27.0 °F 96% 30.11 in 2.5 mi Calm Calm - N/A   Clear
5:55 AM 27.5 °F 26.6 °F 96% 30.11 in 0.5 mi Calm Calm - N/A Fog Light Freezing Fog
6:15 AM 27.3 °F 26.8 °F 98% 30.11 in 0.2 mi Calm Calm - N/A Fog Light Freezing Fog
6:35 AM 29.3 °F 28.8 °F 98% 30.11 in 0.2 mi Calm Calm - N/A Fog Light Freezing Fog
6:55 AM 26.6 °F 26.2 °F 99% 30.12 in 0.2 mi Calm Calm - N/A Fog Light Freezing Fog
7:15 AM 27.7 °F 27.1 °F 98% 30.12 in 1.0 mi Calm Calm - N/A   Mist
7:35 AM 27.7 °F 27.3 °F 99% 30.13 in 0.8 mi Calm Calm - N/A   Mist
7:55 AM 30.6 °F 30.2 °F 99% 30.13 in 1.8 mi Calm Calm - N/A   Mist
8:15 AM 32.0 °F 32.0 °F 100% 30.13 in 3.0 mi Calm Calm - N/A   Clear
8:35 AM 34.0 °F 33.6 °F 99% 30.13 in 5.0 mi Calm Calm - N/A   Clear
8:55 AM 35.8 °F 35.2 °F 98% 30.13 in 7.0 mi Calm Calm - N/A   Clear
9:15 AM 38.5 °F 35.4 °F 89% 30.13 in 10.0 mi Calm Calm - N/A   Clear
9:35 AM 40.1 °F 35.2 °F 83% 30.13 in 10.0 mi Calm Calm - N/A   Clear
9:55 AM 41.9 °F 35.1 °F 77% 30.13 in 10.0 mi Calm Calm - N/A   Clear
10:15 AM 43.3 °F 35.2 °F 73% 30.13 in 10.0 mi Calm Calm - N/A   Clear
10:35 AM 44.8 °F 35.2 °F 69% 30.13 in 10.0 mi Calm Calm - N/A   Clear
10:55 AM 45.9 °F 34.5 °F 65% 30.12 in 10.0 mi Calm Calm - N/A   Clear
11:15 AM 46.6 °F 33.3 °F 60% 30.11 in 10.0 mi Calm Calm - N/A   Clear
11:35 AM 47.8 °F 32.5 °F 55% 30.10 in 10.0 mi Calm Calm - N/A   Clear
11:55 AM 48.4 °F 32.4 °F 54% 30.09 in 10.0 mi Calm Calm - N/A   Clear
12:15 PM 48.9 °F 32.9 °F 54% 30.08 in 10.0 mi Calm Calm - N/A   Clear
12:35 PM 49.5 °F 32.7 °F 53% 30.07 in 10.0 mi Calm Calm - N/A   Clear
12:55 PM 50.0 °F 32.4 °F 51% 30.05 in 10.0 mi Calm Calm - N/A   Clear
1:15 PM 50.2 °F 32.5 °F 51% 30.05 in 10.0 mi Calm Calm - N/A   Clear
1:35 PM 50.9 °F 32.4 °F 49% 30.04 in 10.0 mi Calm Calm - N/A   Clear
1:55 PM 51.1 °F 32.4 °F 49% 30.04 in 10.0 mi Calm Calm - N/A   Clear
2:15 PM 51.1 °F 32.4 °F 49% 30.03 in 10.0 mi Calm Calm - N/A   Clear
2:35 PM 50.9 °F 32.0 °F 48% 30.02 in 10.0 mi Calm Calm - N/A   Clear
2:55 PM 50.9 °F 32.0 °F 48% 30.02 in 10.0 mi Calm Calm - N/A   Clear
3:15 PM 50.5 °F 32.2 °F 49% 30.02 in 10.0 mi Calm Calm - N/A   Clear
3:35 PM 50.2 °F 32.0 °F 50% 30.02 in 10.0 mi Calm Calm - N/A   Clear
3:55 PM 48.4 °F 32.4 °F 54% 30.02 in 10.0 mi Calm Calm - N/A   Clear
4:15 PM 45.1 °F 32.0 °F 60% 30.02 in 10.0 mi Calm Calm - N/A   Clear
4:35 PM 44.1 °F 31.1 °F 60% 30.02 in 10.0 mi Calm Calm - N/A   Clear
4:55 PM 43.3 °F 31.5 °F 63% 30.02 in 10.0 mi Calm Calm - N/A   Clear
5:15 PM 38.8 °F 29.7 °F 70% 30.02 in 7.0 mi Calm Calm - N/A   Clear
5:35 PM 39.0 °F 30.6 °F 72% 30.01 in 10.0 mi Calm Calm - N/A   Clear
5:55 PM 36.9 °F 29.8 °F 76% 30.02 in 10.0 mi Calm Calm - N/A   Clear
6:15 PM 36.1 °F 30.2 °F 79% 30.01 in 10.0 mi Calm Calm - N/A   Clear
6:35 PM 36.5 °F 30.6 °F 79% 30.01 in 10.0 mi Calm Calm - N/A   Clear
6:55 PM 36.7 °F 31.1 °F 80% 30.00 in 10.0 mi Calm Calm - N/A   Clear
7:15 PM 36.5 °F 30.7 °F 80% 30.00 in 10.0 mi Calm Calm - N/A   Clear
7:35 PM 36.5 °F 31.1 °F 81% 29.99 in 10.0 mi Calm Calm - N/A   Clear
7:55 PM 36.5 °F 30.9 °F 80% 29.99 in 7.0 mi Calm Calm - N/A   Clear
8:15 PM 36.5 °F 30.9 °F 80% 29.98 in 7.0 mi Calm Calm - N/A   Clear
8:35 PM 35.8 °F 31.1 °F 83% 29.99 in 10.0 mi Calm Calm - N/A   Clear
8:55 PM 34.3 °F 29.8 °F 84% 29.99 in 7.0 mi Calm Calm - N/A   Clear
9:15 PM 35.8 °F 30.0 °F 80% 29.99 in 10.0 mi Calm Calm - N/A   Scattered Clouds
9:35 PM 36.5 °F 30.6 °F 79% 29.98 in 10.0 mi Calm Calm - N/A   Scattered Clouds
9:55 PM 36.1 °F 30.9 °F 81% 29.98 in 7.0 mi Calm Calm - N/A   Scattered Clouds
10:15 PM 36.7 °F 30.7 °F 79% 29.96 in 7.0 mi Calm Calm - N/A   Overcast
10:35 PM 35.8 °F 30.7 °F 82% 29.95 in 7.0 mi Calm Calm - N/A   Scattered Clouds
10:55 PM 35.1 °F 30.7 °F 84% 29.95 in 3.0 mi Calm Calm - N/A   Haze
11:15 PM 34.7 °F 30.2 °F 84% 29.95 in 4.0 mi Calm Calm - N/A   Haze
11:35 PM 33.8 °F 29.5 °F 84% 29.94 in 3.0 mi Calm Calm - N/A   Haze
11:55 PM 34.3 °F 30.0 °F 84% 29.93 in 2.5 mi Calm Calm - N/A   Scattered Clouds